EW5860 Weather Reports


time (UTC)temp
C
wind
direction
speed
KPH
gust
KPH
rain 1hr
cm
rain 24hr
cm
rain mn
cm
humidity
%
barometer
mb
20260904164511 28 242 0.0 16.1 0.00 0.13 0.00 67 1012.3
20260904163008 28 262 0.0 11.3 0.00 0.13 0.00 70 1012.3
20260904161511 27 214 1.6 14.5 0.00 0.13 0.00 71 1012.4
20260904160006 28 243 1.6 8.0 0.00 0.13 0.00 70 1012.7
20260904154506 27 242 3.2 12.9 0.00 0.13 0.00 69 1012.6
20260904153003 27 48 0.0 8.0 0.00 0.13 0.00 71 1012.5
20260904151503 27 266 0.0 16.1 0.00 0.13 0.00 72 1012.6
20260904150002 27 37 0.0 12.9 0.00 0.13 0.00 74 1012.5
20260904144611 26 242 1.6 12.9 0.00 0.13 0.00 73 1012.4
20260904143101 26 269 4.8 12.9 0.00 0.13 0.00 74 1012.5
20260904141602 26 330 1.6 9.7 0.00 0.13 0.00 76 1012.4
20260904140054 26 324 0.0 11.3 0.00 0.13 0.00 77 1012.3
20260904134552 25 225 1.6 11.3 0.00 0.13 0.00 78 1012.5
20260904133057 25 202 0.0 8.0 0.00 0.13 0.00 81 1012.5
20260904131547 24 46 1.6 17.7 0.00 0.13 0.00 81 1012.5
20260904130045 24 24 0.0 11.3 0.00 0.13 0.00 83 1012.8
20260904124543 23 270 1.6 16.1 0.00 0.13 0.00 85 1012.6
20260904123042 23 284 4.8 22.5 0.00 0.13 0.00 85 1012.6
20260904121541 23 275 3.2 19.3 0.00 0.13 0.00 86 1012.8
20260904120042 22 313 1.6 11.3 0.00 0.13 0.00 87 1012.7
20260904114540 22 267 1.6 16.1 0.00 0.13 0.00 88 1012.6
20260904113038 22 236 1.6 17.7 0.00 0.13 0.00 89 1012.5
20260904111536 22 22 3.2 12.9 0.00 0.13 0.00 89 1012.3
20260904110034 22 266 6.4 16.1 0.00 0.13 0.00 89 1012.1
20260904104534 22 284 3.2 17.7 0.00 0.15 0.00 89 1011.7
20260904103031 22 217 1.6 14.5 0.00 0.15 0.00 89 1011.5
20260904101530 22 29 3.2 14.5 0.00 0.15 0.00 89 1011.4
20260904100030 22 285 1.6 12.9 0.00 0.15 0.00 88 1011.2
20260904094528 22 247 1.6 12.9 0.00 0.23 0.00 88 1011.5
20260904093030 22 261 0.0 8.0 0.00 0.23 0.00 89 1011.5
20260904091544 22 319 0.0 6.4 0.00 0.23 0.00 88 1011.7
20260904090025 22 30 3.2 14.5 0.00 0.23 0.00 88 1011.7
20260904084525 23 266 1.6 12.9 0.00 1.22 0.00 89 1011.6
20260904083029 23 263 3.2 14.5 0.00 1.22 0.00 90 1011.6
20260904081522 23 312 3.2 9.7 0.00 1.22 0.00 92 1011.6
20260904080022 23 334 0.0 12.9 0.00 1.22 0.00 92 1011.6
20260904074537 23 262 0.0 11.3 0.00 1.42 0.00 94 1011.8
20260904073022 23 222 0.0 4.8 0.00 1.42 0.00 97 1011.5
20260904071520 22 224 0.0 0.0 0.00 1.42 0.00 97 1011.5
20260904070019 22 215 0.0 0.0 0.00 1.42 0.00 96 1011.0
20260904064518 23 213 0.0 3.2 0.00 1.42 0.00 97 1010.7
20260904063034 23 217 0.0 1.6 0.00 1.42 0.00 96 1010.5
20260904061516 23 217 0.0 3.2 0.00 1.42 0.00 96 1010.6
20260904060012 23 250 0.0 0.0 0.00 1.42 0.00 95 1010.8
20260904054510 23 250 0.0 0.0 0.00 3.30 0.00 95 1011.3
20260904053008 23 250 0.0 0.0 0.00 3.30 0.00 94 1011.7
20260904051507 24 250 0.0 3.2 0.00 3.30 0.00 93 1011.6
20260904050006 24 62 0.0 1.6 0.00 3.30 0.00 93 1011.3
20260904044505 24 306 0.0 3.2 0.00 3.38 0.00 92 1011.1
20260904043004 24 234 3.2 16.1 0.10 3.38 0.00 91 1011.2
20260904041609 23 208 4.8 9.7 0.13 3.38 0.00 94 1011.5
20260904040056 24 230 0.0 3.2 0.13 3.38 0.00 93 1012.0
20260904034556 25 319 0.0 9.7 0.13 3.38 3.38 89 1012.1
20260904033100 25 211 1.6 6.4 0.03 3.28 3.28 85 1012.0
20260904031604 26 196 4.8 11.3 0.00 3.25 3.25 81 1012.4
20260904030054 25 220 6.4 12.9 0.00 3.25 3.25 83 1012.5
20260904024554 24 205 4.8 8.0 0.00 3.25 3.25 89 1012.4
20260904023053 24 258 0.0 0.0 0.00 3.25 3.25 87 1012.4
20260904021554 25 38 0.0 0.0 0.00 3.25 3.25 84 1012.3
20260904020051 25 38 0.0 3.2 0.00 3.25 3.25 82 1012.5
20260904014553 26 244 0.0 9.7 0.00 3.25 3.25 82 1012.5
20260904013052 26 212 3.2 14.5 0.00 3.25 3.25 82 1012.4
20260904011551 26 195 3.2 12.9 0.00 3.25 3.25 83 1012.7
20260904010053 26 208 6.4 12.9 0.00 3.25 3.25 83 1012.7
20260904004549 26 182 4.8 11.3 0.00 3.25 3.25 84 1013.0
20260904003049 26 196 4.8 11.3 0.00 3.25 3.25 84 1012.8
20260904001549 25 205 3.2 9.7 0.00 3.25 3.25 87 1012.7
20260904000048 24 212 1.6 4.8 0.00 3.25 3.25 93 1012.5
20260903234547 25 205 0.0 0.0 0.00 3.25 3.25 91 1012.3
20260903233048 25 205 0.0 0.0 0.00 3.25 3.25 89 1012.3
20260903231550 25 205 0.0 0.0 0.00 3.25 3.25 87 1012.6
20260903230049 26 205 0.0 3.2 0.00 3.25 3.25 85 1012.4
20260903224547 27 216 0.0 3.2 0.00 3.25 3.25 79 1012.2
20260903223046 29 231 0.0 4.8 0.00 3.25 3.25 74 1012.1
20260903221549 30 225 0.0 4.8 0.00 3.25 3.25 73 1012.1
20260903220044 30 241 0.0 6.4 0.00 3.25 3.25 72 1012.2
20260903214545 30 206 1.6 12.9 0.00 3.25 3.25 70 1012.0
20260903213042 30 225 0.0 1.6 0.00 3.25 3.25 73 1011.7
20260903211548 29 235 0.0 3.2 0.00 3.25 3.25 71 1011.8
20260903210041 29 207 1.6 6.4 0.00 3.25 3.25 69 1011.8
20260903204538 30 253 1.6 14.5 0.00 3.25 3.25 68 1012.0
20260903203047 30 154 3.2 16.1 0.00 3.25 3.25 67 1012.0
20260903201535 30 270 6.4 16.1 0.00 3.25 3.25 66 1012.2
20260903200043 30 240 6.4 14.5 0.00 3.25 3.25 67 1012.3
20260903194540 29 259 8.0 14.5 0.00 3.25 3.25 68 1012.3
20260903193035 29 212 6.4 16.1 0.00 3.25 3.25 67 1012.5
20260903191533 29 190 4.8 17.7 0.00 3.25 3.25 69 1012.7
20260903190024 29 192 3.2 14.5 0.00 3.25 3.25 67 1012.9
20260903184521 28 269 3.2 16.1 0.00 3.28 3.25 73 1013.2
20260903183022 29 203 6.4 19.3 0.00 3.28 3.25 69 1013.3
20260903181517 28 217 6.4 14.5 0.00 3.28 3.25 72 1013.4
20260903180029 28 238 0.0 9.7 0.00 3.28 3.25 74 1013.6
20260903174512 28 179 6.4 17.7 0.00 3.51 3.25 73 1013.6
20260903173009 28 190 6.4 17.7 0.00 3.51 3.25 77 1013.6
20260903171506 27 251 4.8 17.7 0.00 3.51 3.25 78 1014.0
20260903170004 27 250 11.3 25.7 0.00 3.51 3.25 77 1014.2